GEFSNE_500_meanwind_018.txt.gz
Wind_Speed
31 31 32 32 33 34 34 33 31 30 29 27 26 24 22 21 21 21 21 21 22 22 23 23 24 25 26 27 28 28 28 28 27 26 25 26 26 27
32 32 33 33 33 33 33 32 30 29 29 27 24 23 21 21 20 19 20 20 21 22 22 23 24 25 26 26 27 28 29 29 28 27 26 26 27 28
34 33 33 33 33 33 32 31 29 28 27 25 23 22 21 20 19 19 19 20 21 21 22 23 24 26 26 27 27 28 29 29 29 29 29 29 29 30
32 31 31 30 29 28 28 28 27 25 25 23 21 20 20 20 19 19 19 19 21 22 23 23 24 25 26 26 27 28 28 29 30 30 30 30 30 30
26 26 26 25 25 24 25 25 24 23 22 22 20 20 20 20 19 19 19 20 21 23 23 23 23 24 25 26 26 26 26 27 27 26 27 28 28 29
19 19 20 20 21 22 22 22 22 21 21 20 20 19 20 20 20 19 19 20 21 22 23 23 24 26 25 25 24 24 23 23 23 23 24 25 26 27
16 17 17 18 18 20 20 20 19 19 19 19 20 19 20 20 20 19 19 18 19 20 22 23 25 26 26 25 25 24 24 24 25 25 26 27 27 29
18 18 19 19 19 20 20 19 19 18 18 19 20 20 20 20 20 19 18 17 17 17 19 21 22 24 25 26 26 27 27 27 28 30 31 31 31 31
19 20 21 21 21 21 20 19 18 18 18 19 20 20 21 21 20 20 18 16 15 16 16 16 18 20 23 24 27 29 30 31 32 33 33 34 34 35
19 21 22 22 22 21 20 18 17 17 17 18 18 19 20 20 20 19 18 17 16 15 14 14 15 16 19 21 24 25 28 30 32 34 35 36 36 37
19 20 21 22 22 21 19 18 16 15 15 15 15 16 17 18 18 18 17 16 16 15 14 14 14 15 16 19 21 24 27 29 31 33 35 36 37 38
18 19 20 20 20 19 19 18 16 14 13 13 12 12 13 14 15 16 16 15 15 15 15 15 16 17 19 21 23 25 27 29 31 33 35 37 38 39
16 17 18 19 19 19 17 17 16 15 13 12 11 11 10 11 12 13 14 14 14 14 14 15 16 17 19 21 23 25 27 30 32 34 36 38 40 41
13 14 15 16 17 17 17 16 15 14 13 12 10 9 9 9 9 11 11 12 11 11 11 12 13 15 17 19 22 25 27 30 33 35 38 40 42 43
9 10 12 13 14 15 15 15 14 14 13 11 10 8 7 7 7 7 7 7 7 7 8 9 11 13 15 18 22 25 28 31 34 37 39 40 41 42
6 7 9 11 12 13 14 14 14 13 12 11 10 9 7 6 5 4 4 3 3 4 5 7 9 12 16 19 23 26 29 32 33 34 35 35 36 36
3 2 6 9 11 13 13 12 12 11 11 10 10 9 7 5 4 3 2 0 1 3 5 7 11 14 17 21 24 27 29 30 30 30 30 30 30 31
13 11 10 10 11 12 12 12 12 12 11 10 9 9 8 6 5 4 4 4 4 5 7 9 12 16 20 23 27 29 30 30 30 30 29 28 27 28
24 21 18 17 15 15 15 15 14 13 12 11 11 10 9 8 7 7 6 6 6 7 9 12 15 19 22 26 29 32 33 33 32 30 29 28 26 26
28 26 24 22 20 19 18 17 16 15 14 13 12 11 10 10 9 8 8 7 7 8 11 13 17 20 23 27 29 32 34 34 33 31 29 28 26 25
28 27 26 24 22 21 20 19 17 16 14 14 13 12 11 10 9 8 8 7 8 9 11 14 17 20 23 26 28 30 32 33 33 32 31 29 28 27
25 24 24 23 22 21 19 18 17 16 16 14 13 12 11 10 9 8 8 8 9 10 12 15 18 20 22 24 25 27 29 31 32 33 33 32 31 30
21 20 20 19 18 18 17 16 16 15 14 12 11 10 10 9 8 8 8 8 9 11 13 15 18 20 21 23 24 25 27 28 30 31 32 32 32 31

GEFSNE_500_meanwind_024.txt.gz
Wind_Speed
32 32 32 32 33 32 30 30 31 30 31 32 32 33 33 32 31 29 28 27 26 26 26 25 25 25 25 25 25 25 26 26 27 27 28 28 29 30
33 34 34 34 33 32 32 32 32 32 32 32 32 32 32 32 31 30 28 27 26 26 26 26 25 25 26 25 25 26 26 27 27 28 28 29 30 31
34 35 34 34 34 33 33 33 33 32 32 32 31 30 30 31 30 29 28 26 26 26 26 26 25 25 25 25 25 25 26 27 27 28 29 29 30 31
32 34 34 33 33 33 33 33 33 33 33 32 31 29 29 28 28 27 27 26 26 25 25 25 25 25 25 25 25 25 25 26 26 27 28 29 30 31
30 31 32 32 32 32 33 33 33 32 32 31 29 28 26 26 25 25 25 25 25 25 25 25 24 24 24 24 25 25 25 25 25 26 27 28 29 30
25 27 28 30 30 30 30 29 29 29 28 27 26 24 24 23 23 24 24 24 25 24 24 24 24 24 24 24 24 24 24 25 25 26 27 27 28 29
19 20 21 22 22 23 24 24 24 24 24 23 22 21 21 21 22 22 23 23 23 23 23 22 22 22 23 23 24 24 25 25 26 27 27 28 29 30
16 15 16 16 16 16 17 18 18 19 19 18 18 19 19 19 20 21 21 22 22 22 22 21 20 20 20 21 22 23 24 25 26 27 28 30 32 33
16 15 14 14 13 13 13 13 14 14 15 15 16 16 17 18 19 20 20 21 20 20 19 19 18 18 18 19 20 21 22 23 25 26 27 30 33 35
18 17 17 16 15 15 13 12 13 13 13 13 14 15 16 16 17 18 19 19 19 19 19 18 17 17 17 17 17 18 19 21 23 25 28 30 33 36
18 18 18 18 18 17 17 16 15 13 13 13 14 15 15 15 16 17 17 18 18 18 17 17 16 16 16 16 17 18 19 21 23 25 28 30 32 35
16 17 18 19 19 19 18 16 15 14 13 12 12 12 13 13 14 14 15 15 15 15 14 13 13 14 15 15 17 18 20 21 23 26 28 31 34 36
13 15 17 18 18 18 17 16 14 13 12 11 11 11 11 11 11 11 11 11 11 11 11 10 10 11 12 14 15 16 18 20 22 25 27 30 32 34
10 13 14 15 16 16 16 14 13 12 11 10 9 8 8 8 7 7 7 7 7 7 6 6 7 8 9 10 12 14 16 18 21 23 25 26 28 29
6 9 12 14 15 16 15 14 13 11 10 9 7 6 6 6 5 4 3 3 3 2 2 2 3 4 6 8 10 13 16 19 21 23 24 25 25 26
3 6 9 12 14 14 13 12 13 11 10 9 7 6 5 5 4 4 4 4 4 3 3 3 3 5 7 9 12 15 18 20 23 25 25 26 26 26
11 11 12 13 14 14 13 12 12 11 10 8 7 7 6 6 6 6 6 6 6 6 6 5 6 7 9 11 13 16 19 22 24 26 27 27 28 28
18 17 16 15 15 14 13 12 12 11 10 9 8 8 8 9 9 9 9 9 9 8 7 7 7 7 8 11 13 16 18 21 23 25 26 27 28 30
22 20 18 17 16 15 14 13 13 12 11 10 11 11 11 11 11 11 11 10 9 8 7 7 7 7 8 10 12 14 16 19 21 22 24 26 27 29
24 22 21 19 18 17 16 16 15 14 14 14 14 13 13 13 12 12 11 9 8 7 6 6 7 7 9 10 12 14 15 17 19 20 22 23 25 27
25 24 23 22 21 20 19 19 18 17 16 16 15 14 14 13 12 10 9 8 7 6 6 6 7 8 10 11 13 15 16 17 18 20 21 22 23 24
24 24 23 22 22 21 20 19 19 18 17 16 15 14 12 11 10 9 8 7 6 5 6 7 8 10 12 14 15 16 18 19 20 21 22 22 23 24
19 19 20 19 19 19 18 18 17 16 15 14 13 11 10 9 8 7 6 6 5 5 7 8 10 12 14 15 16 18 19 20 22 23 23 23 23 24

GEFSNE_500_meanwind_030.txt.gz
Wind_Speed
31 31 31 31 31 30 31 33 35 37 38 37 35 33 32 31 31 31 31 31 30 30 29 28 27 27 26 26 25 25 25 26 26 27 27 28 28 29
35 35 35 35 34 33 32 32 34 35 36 37 36 34 32 31 30 31 31 31 31 31 30 29 28 27 26 26 26 26 26 26 26 26 27 28 29 30
39 39 38 37 37 36 36 35 36 36 36 36 36 34 33 31 30 30 30 30 30 30 30 29 28 27 26 25 25 26 26 26 26 27 28 28 30 30
40 40 40 39 37 37 37 36 36 36 35 35 34 32 31 30 29 29 28 29 28 29 28 28 27 25 25 24 25 26 26 26 27 27 28 29 29 30
37 38 38 38 38 37 37 37 36 35 34 33 31 31 30 29 28 28 27 26 26 26 25 24 23 23 22 23 24 25 25 25 26 27 27 28 28 29
30 32 33 34 35 36 37 37 35 34 33 32 31 29 29 28 27 26 25 24 24 23 22 21 20 20 21 21 22 24 24 25 26 27 28 29 29 30
25 26 27 28 30 32 33 33 32 31 32 31 29 27 26 25 24 23 22 22 20 19 18 18 18 19 20 20 21 22 22 23 24 25 26 28 29 30
22 23 24 24 25 27 28 29 29 28 28 28 27 25 24 23 22 21 20 19 18 18 17 17 17 17 18 18 18 19 20 21 22 23 24 26 28 30
20 20 20 21 22 21 20 21 23 24 23 23 22 21 21 20 20 19 18 18 17 16 16 16 16 15 15 16 16 17 18 19 20 22 23 25 26 29
18 19 19 18 18 17 15 16 18 19 19 20 19 18 18 18 17 17 17 16 15 14 14 14 14 13 14 14 15 16 17 19 20 22 23 25 27 28
17 18 18 18 17 16 15 14 14 14 16 17 17 16 15 15 14 14 14 13 13 13 12 12 12 12 12 12 13 14 16 17 18 20 21 22 23 23
17 18 19 19 18 17 16 14 12 13 13 13 14 14 13 13 13 13 12 12 11 11 11 10 10 10 9 9 10 11 12 14 14 15 16 16 16 17
15 17 17 18 19 17 16 14 11 11 11 11 12 12 12 11 11 11 10 10 9 9 9 8 8 7 7 7 7 7 8 9 10 11 12 13 15 16
12 15 17 19 19 18 15 12 10 10 11 11 11 11 10 10 10 9 8 8 8 8 7 7 6 5 4 2 2 3 5 7 9 11 13 15 16 17
9 12 15 17 17 16 14 12 11 11 10 10 10 10 10 10 9 9 8 8 8 8 7 7 6 5 3 2 2 3 5 7 9 11 13 15 16 17
9 12 15 16 16 16 15 13 12 12 11 10 10 9 10 10 10 9 8 9 9 9 9 8 7 6 4 3 3 4 5 6 8 10 11 13 14 16
14 14 15 15 15 15 15 15 14 13 12 11 11 11 10 10 10 10 10 10 10 10 10 9 8 6 4 2 2 3 4 6 7 9 10 12 14 15
17 16 16 16 16 16 17 16 15 13 13 12 12 11 11 11 12 12 11 11 11 11 10 8 7 5 3 1 1 2 4 6 7 9 11 12 14 15
19 19 18 17 17 17 16 16 15 14 13 13 12 12 12 13 13 13 13 12 11 10 8 6 5 3 2 1 2 3 4 6 8 10 12 13 15 16
20 19 18 18 17 17 16 16 15 14 14 14 14 14 14 14 14 13 12 11 10 8 6 5 4 3 2 2 3 4 5 7 9 11 13 15 16 17
21 20 19 18 17 17 16 16 16 15 16 15 15 15 15 14 13 12 11 10 8 7 6 5 4 3 3 3 3 5 7 9 11 13 15 16 17 18
21 20 19 19 18 17 17 17 17 16 16 16 16 15 14 13 12 11 9 8 7 6 5 4 4 3 3 3 5 7 9 11 13 14 16 17 18 18
18 18 18 17 17 17 17 16 16 16 16 15 14 13 12 11 10 9 8 6 5 5 4 3 2 1 2 4 7 9 11 13 14 15 16 17 18 19

GEFSNE_500_meanwind_036.txt.gz
Wind_Speed
32 31 31 31 31 30 30 29 28 28 27 27 28 29 30 31 31 31 31 31 31 30 30 30 30 30 30 30 30 29 29 28 28 28 28 27 27 27
32 31 32 32 32 31 31 30 30 29 28 28 28 28 29 30 31 32 32 33 33 32 31 31 31 31 31 31 31 31 30 29 28 28 28 27 27 27
33 33 33 34 33 33 33 33 32 32 31 30 30 30 30 30 30 32 33 33 33 33 31 31 31 32 32 31 30 30 29 28 27 27 27 27 27 27
34 34 34 35 36 36 36 35 34 34 33 32 32 31 31 30 30 31 32 32 32 32 32 31 30 29 29 29 28 27 26 25 25 25 25 25 26 26
32 34 35 36 37 38 38 38 38 37 36 34 33 31 30 30 30 30 30 30 29 30 30 29 29 27 27 27 26 25 23 22 21 21 22 23 24 25
29 31 32 34 36 37 38 38 38 38 37 35 34 33 31 29 28 28 27 27 27 26 26 26 26 25 24 23 22 21 20 19 19 20 21 22 23 24
25 27 28 29 31 32 33 34 35 36 36 35 33 32 31 30 28 26 25 24 24 24 23 23 22 21 20 19 18 17 16 16 17 18 19 20 21 23
22 23 23 24 25 27 28 29 30 30 31 31 30 30 31 29 26 25 24 23 22 22 21 19 17 17 16 16 15 14 14 15 16 17 18 19 20 20
20 21 20 21 21 22 22 22 23 23 25 26 27 26 27 26 24 23 23 22 21 20 19 17 16 15 14 13 13 12 13 13 14 15 15 16 17 17
20 19 18 18 18 19 19 19 20 20 21 22 23 23 23 23 22 20 20 20 19 18 16 15 14 13 12 11 11 11 11 12 12 12 13 13 12 11
18 18 17 16 15 16 17 18 17 17 18 19 20 20 20 20 20 20 19 19 17 16 14 13 13 12 11 10 10 9 9 9 9 9 8 7 7 7
15 15 15 15 14 14 15 15 15 14 15 17 18 18 18 17 17 17 17 16 15 13 12 11 11 10 9 8 7 6 6 5 4 4 4 4 6 7
12 13 14 14 13 14 15 14 14 14 15 15 16 17 18 17 16 15 14 13 12 11 10 10 9 9 8 7 6 5 4 2 1 1 3 4 6 7
10 12 13 13 13 13 14 13 14 14 15 15 15 15 16 17 16 15 13 12 11 10 10 9 9 8 8 7 6 5 3 2 0 1 2 4 6 7
8 11 13 13 14 14 15 14 15 15 15 14 14 15 15 15 15 13 12 11 10 10 10 10 9 8 8 7 6 5 3 2 1 1 3 5 7 8
11 13 14 15 15 16 15 14 15 15 15 15 15 15 14 13 12 11 11 11 10 10 10 10 10 9 8 8 6 5 3 2 1 2 4 6 8 9
15 16 17 17 16 16 16 15 15 15 15 14 14 13 12 11 11 10 10 10 10 10 10 10 10 9 9 7 6 4 3 2 2 4 5 7 9 10
16 16 16 17 16 15 15 15 16 15 14 13 12 12 11 11 11 10 10 10 10 10 10 10 10 9 8 6 5 4 3 3 4 5 7 8 10 11
18 17 17 17 16 15 15 15 15 14 13 12 11 11 11 11 10 10 10 10 10 10 10 10 9 8 7 6 5 4 3 4 5 6 8 9 10 12
19 17 17 16 16 15 15 14 14 14 12 12 11 11 11 11 11 11 11 11 11 10 9 8 8 7 6 5 4 4 4 5 6 8 9 10 11 12
20 19 17 16 16 15 15 14 13 13 12 12 12 12 11 11 11 11 11 11 10 9 8 7 7 6 6 5 4 5 6 7 8 10 11 11 12 12
20 19 18 17 16 15 14 13 13 12 12 12 12 12 11 11 11 11 11 10 8 8 7 6 6 6 5 5 6 7 8 9 10 11 12 12 13 13
18 17 17 16 15 14 14 13 12 12 12 12 11 11 11 11 10 10 9 8 7 6 6 6 5 5 6 7 8 9 11 11 12 12 13 13 13 13